Tracking 19831 objects as of 23-Aug-2019
HD Live streaming from Space Station
objects crossing your sky now

TITAN 3C TRANSTAGE DEB

Track TITAN 3C TRANSTAGE DEB now!


NORAD ID: 26525
Int'l Code: 1965-108AL
Perigee: 572.0 km
Apogee: 29,053.0 km
Inclination: 26.3 °
Period: 511.4 minutes
Semi major axis: 21183 km
RCS: 0.1939 m2 (medium)
Launch date: December 21, 1965
Source: United States (US)
Launch site: AIR FORCE EASTERN TEST RANGE (AFETR)

Note: This is SATELLITE DEBRIS
aabbcc
Your satellite tracking list
Your tracking list is empty




NASA's NSSDC Master Catalog

Two Line Element Set (TLE):
1 26525U 65108AL  19234.51464410 -.00000087  00000-0 -21352-3 0  9997
2 26525  26.2730 198.5954 6722437 313.8245 241.6873  2.81583196200792
Source of the keplerian elements: AFSPC